Overview Statistics Trail Chart Weather Telemetry Raw packets
 

This is the latest recevied weather packets stored in our database for station/object 4S6DRJ-13. If no packets are shown the sender has not sent any weather packets the latest 10 day(s).

<< 186 187 188 189 190 191 192 >>
Time Temp. Humidity Pressure Rain* Wind** Luminosity Snow
1788187628 28.33° C 81% 1009.1 hPa 0 mm 0.45 m/s, 254° 0 W/m² -
1788187567 28.33° C 81% 1009.2 hPa 0 mm 0.45 m/s, 138° 0 W/m² -
1788187506 28.33° C 81% 1009 hPa 0 mm 0.45 m/s, 233° 0 W/m² -
1788187445 28.33° C 81% 1009 hPa 0 mm 0.89 m/s, 256° 0 W/m² -
1788187384 28.33° C 81% 1009.3 hPa 0 mm 0 m/s 0 W/m² -
1788187323 28.33° C 81% 1009.1 hPa 0 mm 0 m/s 0 W/m² -
1788187261 28.33° C 81% 1009.1 hPa 0 mm 0.45 m/s, 243° 0 W/m² -
1788187201 28.33° C 81% 1009 hPa 0 mm 0.45 m/s, 236° 0 W/m² -
1788187140 28.33° C 81% 1009.1 hPa 0 mm 0.89 m/s, 247° 0 W/m² -
1788187079 28.33° C 81% 1009 hPa 0 mm 1.34 m/s, 196° 0 W/m² -
1788187018 28.33° C 81% 1009.3 hPa 0 mm 1.34 m/s, 212° 0 W/m² -
1788186957 28.33° C 81% 1009.1 hPa 0 mm 0.45 m/s, 245° 0 W/m² -
1788186896 28.33° C 81% 1009.2 hPa 0 mm 0.89 m/s, 229° 0 W/m² -
1788186835 28.33° C 81% 1009.2 hPa 0 mm 1.79 m/s, 280° 0 W/m² -
1788186774 28.33° C 81% 1009 hPa 0 mm 0.45 m/s, 204° 0 W/m² -
1788186652 28.33° C 81% 1009 hPa 0 mm 1.34 m/s, 266° 0 W/m² -
1788186591 28.33° C 81% 1009.1 hPa 0 mm 0.45 m/s, 179° 0 W/m² -
1788186530 28.33° C 81% 1008.8 hPa 0 mm 0.89 m/s, 213° 0 W/m² -
1788186469 28.33° C 81% 1009 hPa 0 mm 0.89 m/s, 241° 0 W/m² -
1788186408 28.33° C 81% 1009 hPa 0 mm 1.79 m/s, 227° 0 W/m² -
1788186347 28.33° C 81% 1009.1 hPa 0 mm 2.24 m/s, 224° 0 W/m² -
1788186286 28.33° C 81% 1008.9 hPa 0 mm 0.45 m/s, 283° 0 W/m² -
1788186225 28.33° C 81% 1008.9 hPa 0 mm 1.79 m/s, 249° 0 W/m² -
1788186164 28.33° C 81% 1009.1 hPa 0 mm 1.34 m/s, 235° 0 W/m² -
1788186103 28.89° C 80% 1008.9 hPa 0 mm 1.79 m/s, 217° 0 W/m² -

* Rain latest hour (hover to see other rain measurements)
** Current wind speed in m/s (hover to see current wind gust speed)